Snowfall_Accumulation
0.0 0.0 0.0 0.0 0.0 0.0 0.0 0.0 0.0 0.0 0.0 0.0 0.0 0.0 0.0 0.0 0.0 0.0 0.0 0.0 0.0 0.0 0.0 0.0 0.0 0.0 0.0 0.0 0.0 0.0 0.0 0.0 0.0 0.0 0.0 0.0 0.0 0.0 0.0 0.0 0.0 0.0 0.0 0.0 0.0 0.0 0.0
0.0 0.0 0.0 0.0 0.0 0.0 0.0 0.0 0.0 0.0 0.0 0.0 0.0 0.0 0.0 0.0 0.0 0.0 0.0 0.0 0.0 0.0 0.0 0.0 0.0 0.0 0.0 0.0 0.0 0.0 0.0 0.0 0.0 0.0 0.0 0.0 0.0 0.0 0.0 0.0 0.0 0.0 0.0 0.0 0.0 0.0 0.0
0.0 0.0 0.0 0.0 0.0 0.0 0.0 0.0 0.0 0.0 0.0 0.0 0.0 0.0 0.0 0.0 0.0 0.0 0.0 0.0 0.0 0.0 0.0 0.0 0.0 0.0 0.0 0.0 0.0 0.0 0.0 0.0 0.0 0.0 0.0 0.0 0.0 0.0 0.0 0.0 0.0 0.0 0.0 0.0 0.0 0.0 0.0
0.0 0.0 0.0 0.0 0.0 0.0 0.0 0.0 0.0 0.0 0.0 0.0 0.0 0.0 0.0 0.0 0.0 0.0 0.0 0.0 0.0 0.0 0.0 0.0 0.0 0.0 0.0 0.0 0.0 0.0 0.0 0.0 0.0 0.0 0.0 0.0 0.0 0.0 0.0 0.0 0.0 0.0 0.0 0.0 0.0 0.0 0.0
0.0 0.0 0.0 0.0 0.0 0.0 0.0 0.0 0.0 0.0 0.0 0.0 0.0 0.0 0.0 0.0 0.0 0.0 0.0 0.0 0.0 0.0 0.0 0.0 0.0 0.0 0.0 0.0 0.0 0.0 0.0 0.0 0.0 0.0 0.0 0.0 0.0 0.0 0.0 0.0 0.0 0.0 0.0 0.0 0.0 0.0 0.0
0.0 0.0 0.0 0.0 0.0 0.0 0.0 0.0 0.0 0.0 0.0 0.0 0.0 0.0 0.0 0.0 0.0 0.0 0.0 0.0 0.0 0.0 0.0 0.0 0.0 0.0 0.0 0.0 0.0 0.0 0.0 0.0 0.0 0.0 0.0 0.0 0.0 0.0 0.0 0.0 0.0 0.0 0.0 0.0 0.0 0.0 0.0
0.0 0.0 0.0 0.0 0.0 0.0 0.0 0.0 0.0 0.0 0.0 0.0 0.0 0.0 0.0 0.0 0.0 0.0 0.0 0.0 0.0 0.0 0.0 0.0 0.0 0.0 0.0 0.0 0.0 0.0 0.0 0.0 0.0 0.0 0.0 0.0 0.0 0.0 0.0 0.0 0.0 0.0 0.0 0.0 0.0 0.0 0.0
0.0 0.0 0.0 0.0 0.0 0.0 0.0 0.0 0.0 0.0 0.0 0.0 0.0 0.0 0.0 0.0 0.0 0.0 0.0 0.0 0.0 0.0 0.6 0.0 0.0 0.0 0.0 0.0 0.0 0.0 0.0 0.0 0.0 0.0 0.0 0.0 0.0 0.0 0.0 0.0 0.0 0.0 0.0 0.0 0.0 0.0 0.0
0.0 0.0 0.0 0.0 0.0 0.0 0.0 0.0 0.0 0.0 0.0 0.0 0.0 0.0 0.0 0.0 0.0 0.0 0.0 0.0 0.0 0.0 2.7 0.0 0.0 0.0 0.0 0.0 0.0 0.0 0.0 0.0 0.0 0.2 0.0 0.0 0.0 0.0 0.0 0.0 0.0 0.0 0.5 0.0 0.2 0.0 0.0
0.0 0.0 0.0 0.0 0.0 0.0 0.0 0.0 0.0 0.0 0.0 0.0 0.0 0.0 0.0 0.0 0.0 0.0 0.0 0.0 0.0 0.0 6.9 0.0 0.2 0.0 0.0 0.0 0.0 0.0 0.0 0.0 0.0 0.0 0.3 0.1 0.0 0.0 0.0 0.0 0.4 0.3 0.0 0.0 0.0 0.2 0.6
0.0 0.0 0.0 0.0 0.0 0.0 0.0 0.0 0.0 0.0 0.0 0.0 0.0 0.0 0.0 0.0 0.0 0.0 0.0 0.0 0.0 0.0 34.8 0.3 0.0 0.0 0.0 0.0 0.0 0.0 0.0 0.0 0.0 0.0 0.4 0.4 0.1 0.2 0.6 0.2 0.5 0.1 0.0 0.0 0.0 0.0 0.6
0.0 0.0 0.0 0.0 0.0 0.0 0.0 0.0 0.0 0.0 0.0 0.0 0.0 0.0 0.0 0.0 0.0 0.0 0.0 0.0 0.0 37.8 45.6 1.3 0.0 0.0 0.0 0.0 0.0 0.0 0.0 0.0 0.0 0.0 0.0 0.1 0.0 0.0 0.5 0.0 0.0 0.0 0.2 0.0 0.1 0.9 3.4
0.0 0.0 0.0 0.0 0.0 0.0 0.0 0.0 0.0 0.0 0.0 0.0 0.0 0.0 0.0 0.0 0.0 0.0 0.0 0.0 59.1 61.9 0.0 2.1 0.0 0.0 0.0 0.0 0.0 0.2 0.9 0.5 0.9 3.4 2.4 0.0 0.4 0.0 0.0 0.4 0.0 0.5 0.6 6.6 5.7 6.1 3.9
0.0 0.0 0.0 0.0 0.0 0.0 0.0 0.0 0.0 0.0 0.0 0.0 0.0 0.0 0.0 0.0 0.0 0.0 0.0 13.4 70.9 12.0 3.6 0.1 0.0 0.0 0.7 0.2 0.0 0.0 0.5 1.6 2.1 0.3 0.7 2.4 3.7 0.8 0.1 2.8 0.4 0.1 0.7 3.4 5.7 2.4 0.5
0.0 0.0 0.0 0.0 0.0 0.0 0.0 0.0 0.0 0.0 0.0 0.0 0.0 0.0 0.0 0.0 0.0 0.0 6.3 86.1 52.3 1.7 0.0 0.0 0.0 1.9 2.3 0.7 0.2 0.0 2.7 5.7 5.1 1.0 5.4 5.3 2.7 0.0 0.5 0.0 0.1 1.2 4.0 0.8 5.6 1.8 4.2
0.0 0.0 0.0 0.0 0.0 0.0 0.0 0.0 0.0 0.0 0.0 0.0 0.0 0.0 0.0 0.0 0.0 0.0 37.2 64.2 24.4 0.0 0.9 0.0 2.3 1.6 3.4 2.3 1.8 2.4 4.3 10.6 4.8 3.5 0.9 3.5 8.5 0.7 0.1 0.0 0.0 1.2 1.1 8.1 12.8 25.8 15.2
0.0 0.0 0.0 0.0 0.0 0.0 0.0 0.0 0.0 0.0 0.0 0.0 0.0 8.8 0.0 0.0 0.0 2.5 63.9 19.3 8.3 0.0 0.0 2.2 2.7 4.6 1.4 2.1 5.1 5.7 8.9 7.8 6.1 2.3 1.7 4.1 9.0 1.8 0.8 2.0 3.2 0.6 3.9 7.3 9.6 15.0 16.8
0.0 0.0 0.0 0.0 0.0 0.0 0.0 0.0 0.0 0.0 0.0 0.0 0.0 41.3 0.0 0.0 33.5 39.9 40.4 15.4 1.8 0.3 0.0 2.7 1.7 2.0 4.0 3.1 3.2 7.7 12.1 9.2 1.4 2.6 5.2 6.1 8.0 10.2 1.5 0.4 0.1 0.5 7.7 11.8 45.8 39.5 28.3
0.0 0.0 0.0 0.0 0.0 0.0 0.0 0.0 0.0 0.0 0.0 0.0 18.8 23.4 0.0 0.0 57.7 40.5 12.5 15.8 5.7 4.2 3.1 5.9 3.7 0.9 1.7 3.0 7.7 5.3 5.8 0.1 3.0 6.6 9.4 9.0 11.5 14.5 6.6 1.6 0.1 6.8 9.6 9.7 14.3 31.1 29.7
0.0 0.0 0.0 0.0 0.0 0.0 0.0 0.0 0.0 0.0 0.0 0.0 23.8 54.8 13.5 0.3 8.5 12.3 14.9 15.5 10.1 0.0 2.9 0.6 8.0 0.2 6.2 8.4 2.9 6.4 4.1 2.8 6.6 6.4 3.4 6.0 8.4 11.3 11.8 7.2 6.6 7.5 3.8 7.1 17.8 28.4 19.1
0.0 0.0 0.0 0.0 0.0 0.0 0.0 0.0 0.0 0.0 0.0 0.0 41.1 44.7 0.6 38.0 23.4 10.8 11.4 10.6 7.9 8.0 4.6 0.5 8.2 4.4 5.6 12.2 7.7 5.7 4.6 6.2 9.1 0.5 3.8 14.5 14.2 5.6 4.7 1.9 1.8 3.8 3.8 2.7 11.2 6.8 12.6
0.0 0.0 0.0 0.0 0.0 0.0 0.0 0.0 0.0 0.0 0.0 3.5 80.3 24.2 5.7 7.2 4.3 14.1 10.1 13.7 6.0 5.5 11.3 8.5 9.2 4.3 3.9 10.0 7.2 8.5 5.9 3.5 9.1 0.5 9.1 13.1 15.3 9.4 13.2 4.1 6.0 8.2 5.0 3.3 5.5 5.9 6.9
0.0 0.0 0.0 0.0 0.0 0.0 0.0 0.0 0.0 0.0 0.0 20.6 7.9 0.0 17.2 6.4 5.1 11.1 13.4 10.9 8.2 10.6 3.4 2.5 5.7 8.5 7.3 6.3 2.2 0.9 0.5 0.2 1.8 6.9 7.6 14.2 21.5 19.5 22.2 9.4 7.7 14.2 8.8 5.4 4.3 2.5 3.0
0.0 0.0 0.0 0.0 0.0 0.0 0.0 0.0 0.0 0.0 0.0 0.0 0.4 3.7 26.0 25.3 10.5 7.4 5.1 2.9 6.5 7.1 16.2 3.8 2.7 8.5 1.7 0.4 0.0 0.0 0.0 2.2 0.1 3.0 3.4 14.6 16.6 25.3 27.3 16.8 26.9 10.0 4.7 2.5 1.2 0.9 0.7
0.0 0.0 0.0 0.0 0.0 0.0 0.0 0.0 0.0 0.0 0.0 0.0 0.0 3.8 21.8 27.3 5.3 6.4 5.2 5.2 3.3 3.8 7.4 8.6 4.5 0.4 0.0 1.1 12.1 21.0 19.2 18.6 13.6 7.7 8.7 6.6 11.9 27.5 31.0 22.9 16.1 3.8 1.7 1.9 7.1 5.1 0.6
0.0 0.0 0.0 0.0 0.0 0.0 0.0 0.0 0.0 0.0 0.0 0.0 0.0 0.0 9.9 35.7 10.4 0.9 5.5 2.2 4.7 9.0 9.1 6.1 2.9 0.0 0.0 9.3 24.3 29.9 19.4 13.6 11.6 6.9 4.7 6.6 10.7 24.0 29.1 25.0 18.0 7.0 3.1 0.4 0.5 13.4 0.7
0.0 0.0 0.0 0.0 0.0 0.0 0.0 0.0 0.0 0.0 0.0 0.0 0.0 0.0 7.3 43.2 2.2 1.1 7.0 9.3 2.1 4.7 11.6 2.9 2.4 5.3 0.4 21.7 34.7 27.0 16.6 6.2 11.1 10.7 13.1 16.3 24.6 32.3 23.6 21.9 9.6 8.9 4.8 0.1 13.0 13.5 5.8
0.0 0.0 0.0 0.0 0.0 0.0 0.0 0.0 0.0 0.0 0.0 0.0 0.0 0.0 7.1 44.3 4.7 0.0 0.5 1.0 3.4 3.4 13.2 6.8 16.3 11.9 19.2 22.1 24.1 20.8 22.2 16.4 15.1 11.4 15.2 14.0 25.3 24.0 21.4 25.9 16.6 7.7 4.6 9.1 8.6 8.3 8.6
0.0 0.0 0.0 0.0 0.0 0.0 0.0 0.0 0.0 0.0 0.0 0.0 9.0 0.0 0.0 20.2 10.1 0.0 0.0 0.0 0.0 0.0 3.6 5.2 10.5 13.3 17.8 23.9 19.7 14.1 15.3 12.8 12.4 19.2 3.4 19.4 15.3 20.3 21.3 22.4 13.3 10.4 13.5 10.0 7.6 8.6 8.0